星链-5356 (STARLINK-5356 )

导读 | 豆包AI

STARLINK-5356是美国SpaceX公司星链星座的组成部分,于2023年5月4日发射升空。星链项目旨在构建全球卫星互联网星座,为全球提供低延迟高速互联网服务。该卫星继承星链系列技术特点,服役期间参与完成全球网络覆盖补充,截至2026年已在轨运行近三年,支撑星座服务性能提升。

基本信息
目录编号:
56418
目录名称:
STARLINK-5356
国际标识:
2023-061AW
轨道中心:
EARTH
卫星名称:
星链-5356
卫星全名:
星链-5356 (STARLINK-5356 )
卫星状态:
在轨 (已飞行1046 天)
发射日期:
2023-05-04 UTC
国别 :
美国 (US)
星等 :
--
轨道信息
数据来源 国际轨道数据 AOE轨道数据
星历时间 2026-03-14T21:15:54+0800
1天前
查看轨道信息
2026-03-14T08:00:00+0800
1天前
查看轨道信息
半长轴 6937.209km 6937.215km
偏心率 0.0001585 0.0001381
轨道倾角 43.005° 43.002°
近地点辐角 282.155° 271.800°
升交点赤经 145.254° 148.258°
平近点角 77.911° 335.118°
近地点 557.972km 558.119km
远地点 560.172km 560.037km
周期 95.838分钟 95.838分钟
每日圈数 15.025386 15.025365
详细信息
固有亮度:
5
最大亮度:
2.5
卫星平台:
Starlink v1.5
覆盖范围:
全球
运营商:
太空探索技术公司
运营商所在国:
美国
制造商(研发单位):
太空探索技术公司
制造商所在国:
美国
使用方式:
暂无
卫星简介
星链(Starlink)计划是由太空探索技术公司(SpaceX)提出的一个巨型低轨卫星互联网星座项目,计划在2019年至2024年间在太空搭建由约1.2万颗卫星组成的“星链”网络,其中1584颗将部署在地球上空550千米处的近地轨道,并从2020年开始工作。该卫星仍在工作。
2D轨道图
3D轨道图
轨道高度分析图
轨道倾角分析图
轨道综合分析图
查看轨道综合分析图